Location: Naloco
(16.5478°S, 37.1017°E)
Time: 02:56:24
(UTC+00:00)

OAO 3 Rocket - Pass Details

Date: 13 August 2020
Orbit: 629 x 683 km, 35.0° (Epoch: 23 September)

Event Time Altitude Azimuth Distance (km) Brightness Sun altitude
Rises 16:02:10 0° 235° (SW) 2,920 7.2 -10.1°
Reaches altitude 10° 16:04:30 10° 234° (SW) 2,014 6.3 -10.6°
Maximum altitude 16:09:12 77° 147° (SSE) 655 3.1 -11.7°
Enters shadow 16:13:47 11° 61° (ENE) 1,978 5.2 -12.8°
